| time (UTC) | temp F | wind direction | speed knots | gust knots | rain 1hr in | rain 24hr in | rain mn in | humidity % | barometer mb |
| 20260506170935 | 55 | 39 | 8.7 | 14.8 | 0.00 | 0.01 | 0.01 | 80 | 1014.2 |
| 20260506170434 | 55 | 43 | 6.1 | 14.8 | 0.00 | 0.01 | 0.01 | 80 | 1014.2 |
| 20260506165934 | 55 | 41 | 8.7 | 14.8 | 0.00 | 0.01 | 0.01 | 81 | 1014.2 |
| 20260506165435 | 55 | 42 | 11.3 | 15.6 | 0.00 | 0.01 | 0.01 | 81 | 1014.2 |
| 20260506164434 | 54 | 32 | 8.7 | 17.4 | 0.00 | 0.01 | 0.01 | 82 | 1014.1 |
| 20260506163935 | 54 | 17 | 11.3 | 17.4 | 0.00 | 0.01 | 0.01 | 82 | 1013.9 |
| 20260506163434 | 54 | 13 | 10.4 | 14.8 | 0.00 | 0.01 | 0.01 | 82 | 1013.9 |
| 20260506162935 | 54 | 16 | 10.4 | 14.8 | 0.00 | 0.01 | 0.01 | 82 | 1014.0 |
| 20260506162434 | 54 | 10 | 9.6 | 13.9 | 0.01 | 0.01 | 0.01 | 82 | 1014.1 |
| 20260506161434 | 54 | 7 | 5.2 | 14.8 | 0.01 | 0.01 | 0.01 | 83 | 1014.4 |
| 20260506160935 | 54 | 23 | 11.3 | 14.8 | 0.01 | 0.01 | 0.01 | 83 | 1014.1 |
| 20260506160435 | 54 | 358 | 8.7 | 15.6 | 0.01 | 0.01 | 0.01 | 84 | 1014.1 |
| 20260506155434 | 53 | 22 | 10.4 | 13.9 | 0.01 | 0.01 | 0.01 | 84 | 1013.5 |
| 20260506154935 | 53 | 15 | 6.1 | 11.3 | 0.01 | 0.01 | 0.01 | 85 | 1014.0 |
| 20260506154435 | 53 | 13 | 8.7 | 11.3 | 0.01 | 0.01 | 0.01 | 84 | 1014.4 |
| 20260506153935 | 53 | 9 | 7.0 | 10.4 | 0.01 | 0.01 | 0.01 | 84 | 1014.8 |
| 20260506153436 | 53 | 351 | 4.3 | 7.0 | 0.01 | 0.01 | 0.01 | 84 | 1015.2 |
| 20260506152935 | 54 | 349 | 2.6 | 4.3 | 0.01 | 0.01 | 0.01 | 84 | 1015.4 |
| 20260506152436 | 54 | 359 | 2.6 | 7.8 | 0.00 | 0.00 | 0.00 | 83 | 1015.4 |
| 20260506151936 | 54 | 349 | 3.5 | 7.8 | 0.00 | 0.00 | 0.00 | 83 | 1015.5 |
| 20260506151435 | 54 | 6 | 4.3 | 7.8 | 0.00 | 0.00 | 0.00 | 83 | 1015.3 |
| 20260506150435 | 54 | 46 | 1.7 | 13.0 | 0.00 | 0.00 | 0.00 | 84 | 1014.5 |
| 20260506145935 | 53 | 35 | 7.8 | 14.8 | 0.00 | 0.00 | 0.00 | 84 | 1013.6 |
| 20260506145435 | 53 | 14 | 10.4 | 14.8 | 0.00 | 0.00 | 0.00 | 84 | 1013.7 |
| 20260506144936 | 53 | 13 | 8.7 | 12.2 | 0.00 | 0.00 | 0.00 | 84 | 1013.8 |
| 20260506143936 | 53 | 8 | 4.3 | 13.0 | 0.00 | 0.00 | 0.00 | 84 | 1014.4 |
| 20260506143435 | 53 | 342 | 5.2 | 13.0 | 0.00 | 0.00 | 0.00 | 84 | 1014.3 |
| 20260506142936 | 53 | 14 | 9.6 | 13.0 | 0.00 | 0.00 | 0.00 | 83 | 1014.1 |
| 20260506142436 | 53 | 2 | 9.6 | 13.0 | 0.00 | 0.00 | 0.00 | 83 | 1013.8 |
| 20260506140937 | 53 | 24 | 6.1 | 12.2 | 0.00 | 0.00 | 0.00 | 83 | 1014.4 |
| 20260506135437 | 53 | 7 | 7.0 | 13.9 | 0.00 | 0.00 | 0.00 | 84 | 1013.5 |
| 20260506134937 | 53 | 16 | 9.6 | 13.9 | 0.00 | 0.00 | 0.00 | 84 | 1013.2 |
| 20260506134436 | 52 | 22 | 9.6 | 15.6 | 0.00 | 0.00 | 0.00 | 84 | 1013.0 |
| 20260506133936 | 52 | 21 | 10.4 | 15.6 | 0.00 | 0.00 | 0.00 | 84 | 1013.0 |
| 20260506133436 | 52 | 17 | 8.7 | 12.2 | 0.00 | 0.00 | 0.00 | 84 | 1013.1 |
| 20260506132937 | 53 | 7 | 6.1 | 10.4 | 0.00 | 0.00 | 0.00 | 85 | 1013.3 |
| 20260506131936 | 52 | 358 | 7.8 | 17.4 | 0.00 | 0.00 | 0.00 | 85 | 1013.1 |
| 20260506131435 | 52 | 11 | 7.0 | 17.4 | 0.00 | 0.00 | 0.00 | 85 | 1013.0 |
| 20260506130436 | 52 | 37 | 10.4 | 15.6 | 0.00 | 0.00 | 0.00 | 85 | 1012.8 |
| 20260506125436 | 52 | 21 | 9.6 | 15.6 | 0.00 | 0.00 | 0.00 | 85 | 1012.8 |
| 20260506124937 | 52 | 18 | 8.7 | 13.9 | 0.00 | 0.00 | 0.00 | 85 | 1012.6 |
| 20260506124436 | 52 | 14 | 7.8 | 13.9 | 0.00 | 0.00 | 0.00 | 85 | 1012.4 |
| 20260506123938 | 52 | 12 | 8.7 | 13.9 | 0.00 | 0.00 | 0.00 | 85 | 1012.6 |
| 20260506123438 | 52 | 9 | 10.4 | 14.8 | 0.00 | 0.00 | 0.00 | 85 | 1012.5 |
| 20260506122937 | 52 | 21 | 10.4 | 14.8 | 0.00 | 0.00 | 0.00 | 85 | 1012.5 |
| 20260506122438 | 52 | 359 | 8.7 | 13.9 | 0.00 | 0.00 | 0.00 | 85 | 1012.5 |
| 20260506121936 | 52 | 8 | 7.0 | 13.9 | 0.00 | 0.00 | 0.00 | 85 | 1012.6 |
| 20260506121437 | 52 | 20 | 9.6 | 13.9 | 0.00 | 0.00 | 0.00 | 85 | 1012.4 |
| 20260506120436 | 52 | 14 | 8.7 | 13.9 | 0.00 | 0.00 | 0.00 | 85 | 1012.3 |
| 20260506115936 | 52 | 9 | 10.4 | 13.9 | 0.00 | 0.00 | 0.00 | 85 | 1012.4 |
| 20260506115436 | 52 | 7 | 7.8 | 12.2 | 0.00 | 0.00 | 0.00 | 85 | 1012.2 |
| 20260506114937 | 52 | 8 | 7.8 | 13.9 | 0.00 | 0.00 | 0.00 | 85 | 1012.2 |
| 20260506114436 | 52 | 355 | 8.7 | 15.6 | 0.00 | 0.00 | 0.00 | 85 | 1012.1 |
| 20260506113937 | 52 | 17 | 10.4 | 15.6 | 0.00 | 0.00 | 0.00 | 84 | 1011.9 |
| 20260506113437 | 52 | 11 | 11.3 | 14.8 | 0.00 | 0.00 | 0.00 | 84 | 1011.8 |
| 20260506112437 | 52 | 0 | 12.2 | 15.6 | 0.00 | 0.00 | 0.00 | 84 | 1011.5 |
| 20260506111937 | 52 | 6 | 10.4 | 14.8 | 0.00 | 0.00 | 0.00 | 84 | 1011.4 |
| 20260506111436 | 52 | 6 | 9.6 | 14.8 | 0.00 | 0.00 | 0.00 | 84 | 1011.6 |
| 20260506110937 | 53 | 356 | 8.7 | 15.6 | 0.00 | 0.00 | 0.00 | 83 | 1011.5 |
| 20260506105938 | 53 | 355 | 10.4 | 17.4 | 0.00 | 0.00 | 0.00 | 82 | 1011.3 |
| 20260506105437 | 53 | 350 | 10.4 | 17.4 | 0.00 | 0.00 | 0.00 | 81 | 1011.1 |
| 20260506104937 | 54 | 9 | 12.2 | 17.4 | 0.00 | 0.00 | 0.00 | 80 | 1010.9 |
| 20260506103937 | 54 | 14 | 7.8 | 12.2 | 0.00 | 0.00 | 0.00 | 80 | 1011.0 |
| 20260506103436 | 54 | 6 | 8.7 | 15.6 | 0.00 | 0.00 | 0.00 | 80 | 1011.0 |
| 20260506102937 | 54 | 2 | 10.4 | 15.6 | 0.00 | 0.00 | 0.00 | 79 | 1011.0 |
| 20260506102437 | 54 | 341 | 8.7 | 12.2 | 0.00 | 0.00 | 0.00 | 79 | 1010.9 |
| 20260506101439 | 54 | 12 | 7.8 | 14.8 | 0.00 | 0.00 | 0.00 | 79 | 1010.6 |
| 20260506100437 | 55 | 10 | 8.7 | 13.0 | 0.00 | 0.00 | 0.00 | 78 | 1010.4 |
| 20260506094937 | 55 | 5 | 5.2 | 12.2 | 0.00 | 0.00 | 0.00 | 78 | 1010.4 |
| 20260506093937 | 55 | 19 | 8.7 | 13.0 | 0.00 | 0.00 | 0.00 | 78 | 1010.1 |
| 20260506093439 | 55 | 14 | 10.4 | 13.0 | 0.00 | 0.00 | 0.00 | 77 | 1010.0 |
| 20260506092938 | 55 | 6 | 7.0 | 12.2 | 0.00 | 0.00 | 0.00 | 78 | 1009.9 |
| 20260506092437 | 55 | 10 | 6.1 | 10.4 | 0.00 | 0.00 | 0.00 | 78 | 1009.8 |
| 20260506091939 | 55 | 18 | 7.8 | 10.4 | 0.00 | 0.00 | 0.00 | 78 | 1009.8 |
| 20260506091437 | 55 | 36 | 7.8 | 10.4 | 0.00 | 0.00 | 0.00 | 78 | 1009.7 |
| 20260506085437 | 56 | 13 | 7.8 | 10.4 | 0.00 | 0.00 | 0.00 | 77 | 1009.5 |
| 20260506084937 | 56 | 27 | 7.8 | 11.3 | 0.00 | 0.00 | 0.00 | 77 | 1009.5 |
| 20260506084437 | 56 | 27 | 8.7 | 11.3 | 0.00 | 0.00 | 0.00 | 78 | 1009.5 |
| 20260506083438 | 56 | 10 | 7.0 | 12.2 | 0.00 | 0.00 | 0.00 | 78 | 1009.5 |
| 20260506082939 | 56 | 14 | 6.1 | 11.3 | 0.00 | 0.00 | 0.00 | 78 | 1009.4 |
| 20260506082437 | 56 | 2 | 7.0 | 11.3 | 0.00 | 0.00 | 0.00 | 78 | 1009.5 |
| 20260506081438 | 56 | 10 | 8.7 | 12.2 | 0.00 | 0.00 | 0.00 | 78 | 1009.5 |
| 20260506080938 | 56 | 13 | 7.8 | 11.3 | 0.00 | 0.00 | 0.00 | 78 | 1009.4 |
| 20260506080438 | 56 | 14 | 8.7 | 12.2 | 0.00 | 0.00 | 0.00 | 78 | 1009.4 |
| 20260506073439 | 57 | 19 | 4.3 | 10.4 | 0.00 | 0.00 | 0.00 | 79 | 1008.9 |
| 20260506072938 | 57 | 43 | 2.6 | 10.4 | 0.00 | 0.00 | 0.00 | 79 | 1008.7 |
| 20260506072439 | 57 | 21 | 6.1 | 10.4 | 0.00 | 0.00 | 0.00 | 79 | 1008.6 |
| 20260506071939 | 57 | 24 | 7.0 | 10.4 | 0.00 | 0.00 | 0.00 | 79 | 1008.5 |
| 20260506071438 | 57 | 46 | 5.2 | 10.4 | 0.00 | 0.00 | 0.00 | 79 | 1008.6 |
| 20260506070939 | 57 | 33 | 5.2 | 10.4 | 0.00 | 0.00 | 0.00 | 79 | 1008.8 |
| 20260506070438 | 57 | 25 | 6.1 | 10.4 | 0.00 | 0.00 | 0.00 | 79 | 1008.7 |
| 20260506062439 | 57 | 16 | 6.1 | 11.3 | 0.00 | 0.00 | 0.00 | 80 | 1008.9 |
| 20260506061939 | 57 | 15 | 7.8 | 11.3 | 0.00 | 0.00 | 0.00 | 80 | 1009.1 |
| 20260506060938 | 57 | 7 | 10.4 | 13.0 | 0.00 | 0.00 | 0.00 | 80 | 1009.2 |
| 20260506060438 | 57 | 11 | 8.7 | 13.0 | 0.00 | 0.00 | 0.00 | 80 | 1008.9 |
| 20260506050939 | 59 | 11 | 7.0 | 13.9 | 0.00 | 0.00 | 0.00 | 81 | 1009.0 |
| 20260506050439 | 59 | 9 | 7.8 | 13.9 | 0.00 | 0.00 | 0.00 | 81 | 1008.8 |
| 20260506044939 | 59 | 18 | 10.4 | 14.8 | 0.00 | 0.00 | 0.00 | 82 | 1009.0 |
| 20260506044439 | 59 | 13 | 10.4 | 14.8 | 0.00 | 0.00 | 0.00 | 82 | 1009.0 |
| 20260506043939 | 59 | 8 | 8.7 | 14.8 | 0.00 | 0.00 | 0.00 | 82 | 1009.0 |
| 20260506043440 | 59 | 11 | 10.4 | 13.0 | 0.00 | 0.00 | 0.00 | 82 | 1009.1 |
| 20260506042441 | 59 | 11 | 9.6 | 13.9 | 0.00 | 0.00 | 0.00 | 82 | 1008.9 |
| 20260506041939 | 59 | 9 | 8.7 | 13.9 | 0.00 | 0.00 | 0.00 | 82 | 1008.8 |
| 20260506041439 | 60 | 6 | 10.4 | 13.9 | 0.00 | 0.00 | 0.00 | 82 | 1008.8 |
| 20260506040940 | 60 | 0 | 9.6 | 14.8 | 0.00 | 0.00 | 0.00 | 82 | 1008.7 |
| 20260506040440 | 60 | 11 | 10.4 | 14.8 | 0.00 | 0.00 | 0.00 | 82 | 1008.6 |
| 20260506035939 | 60 | 24 | 9.6 | 13.0 | 0.00 | 0.00 | 0.00 | 82 | 1008.5 |
| 20260506035440 | 60 | 4 | 7.0 | 13.0 | 0.00 | 0.00 | 0.00 | 82 | 1008.5 |
| 20260506034940 | 60 | 8 | 10.4 | 13.9 | 0.00 | 0.00 | 0.00 | 82 | 1008.5 |
| 20260506034440 | 60 | 10 | 9.6 | 13.9 | 0.00 | 0.00 | 0.00 | 82 | 1008.6 |
| 20260506033940 | 60 | 5 | 10.4 | 15.6 | 0.00 | 0.00 | 0.00 | 82 | 1008.3 |
| 20260506033440 | 61 | 15 | 11.3 | 15.6 | 0.00 | 0.00 | 0.00 | 82 | 1008.1 |
| 20260506032940 | 61 | 22 | 8.7 | 14.8 | 0.00 | 0.00 | 0.00 | 82 | 1008.1 |
| 20260506032439 | 61 | 29 | 11.3 | 13.9 | 0.00 | 0.00 | 0.00 | 82 | 1008.0 |
| 20260506031939 | 61 | 4 | 9.6 | 13.9 | 0.00 | 0.00 | 0.00 | 82 | 1008.1 |
| 20260506031440 | 61 | 11 | 8.7 | 13.0 | 0.00 | 0.00 | 0.00 | 82 | 1008.0 |
| 20260506030940 | 61 | 358 | 9.6 | 14.8 | 0.00 | 0.00 | 0.00 | 82 | 1008.1 |
| 20260506030439 | 62 | 3 | 10.4 | 14.8 | 0.00 | 0.00 | 0.00 | 81 | 1008.0 |
| 20260506025939 | 62 | 6 | 10.4 | 13.0 | 0.00 | 0.00 | 0.00 | 81 | 1008.0 |
| 20260506025440 | 62 | 9 | 7.8 | 13.0 | 0.00 | 0.00 | 0.00 | 82 | 1007.7 |
| 20260506024940 | 62 | 9 | 10.4 | 13.0 | 0.00 | 0.00 | 0.00 | 81 | 1007.6 |
| 20260506024439 | 62 | 15 | 8.7 | 13.0 | 0.00 | 0.00 | 0.00 | 81 | 1007.5 |
| 20260506023941 | 63 | 15 | 8.7 | 12.2 | 0.00 | 0.00 | 0.00 | 81 | 1007.4 |
| 20260506022440 | 63 | 12 | 8.7 | 13.9 | 0.00 | 0.00 | 0.00 | 81 | 1006.9 |
| 20260506021940 | 64 | 6 | 7.8 | 13.0 | 0.00 | 0.00 | 0.00 | 81 | 1006.8 |
| 20260506020440 | 64 | 5 | 7.8 | 14.8 | 0.00 | 0.00 | 0.00 | 81 | 1006.2 |
| 20260506015942 | 65 | 358 | 7.0 | 11.3 | 0.00 | 0.00 | 0.00 | 80 | 1006.2 |
| 20260506015441 | 65 | 0 | 6.1 | 11.3 | 0.00 | 0.00 | 0.00 | 80 | 1006.2 |
| 20260506014941 | 66 | 12 | 7.8 | 12.2 | 0.00 | 0.00 | 0.00 | 80 | 1006.0 |
| 20260506014440 | 66 | 13 | 5.2 | 12.2 | 0.00 | 0.00 | 0.00 | 80 | 1005.9 |
| 20260506013940 | 66 | 12 | 9.6 | 13.0 | 0.00 | 0.00 | 0.00 | 79 | 1005.8 |
| 20260506013441 | 66 | 10 | 8.7 | 13.0 | 0.00 | 0.00 | 0.00 | 79 | 1005.6 |
| 20260506012940 | 67 | 17 | 9.6 | 13.9 | 0.00 | 0.00 | 0.00 | 78 | 1005.5 |
| 20260506012440 | 67 | 40 | 6.1 | 13.9 | 0.00 | 0.00 | 0.00 | 79 | 1005.4 |
| 20260506011941 | 67 | 31 | 7.8 | 10.4 | 0.00 | 0.00 | 0.00 | 79 | 1005.2 |
| 20260506011440 | 67 | 24 | 6.1 | 13.9 | 0.00 | 0.00 | 0.00 | 79 | 1005.3 |
| 20260506010942 | 67 | 3 | 7.0 | 13.9 | 0.00 | 0.00 | 0.00 | 79 | 1004.9 |
| 20260506010440 | 67 | 0 | 6.1 | 12.2 | 0.00 | 0.00 | 0.00 | 79 | 1004.6 |
| 20260506005940 | 67 | 357 | 8.7 | 13.0 | 0.00 | 0.00 | 0.00 | 79 | 1004.5 |
| 20260506005442 | 68 | 351 | 8.7 | 13.0 | 0.00 | 0.00 | 0.00 | 79 | 1004.6 |
| 20260506004940 | 68 | 341 | 10.4 | 13.9 | 0.00 | 0.00 | 0.00 | 78 | 1004.5 |
| 20260506003941 | 68 | 336 | 11.3 | 13.0 | 0.00 | 0.00 | 0.00 | 78 | 1004.4 |
| 20260506003441 | 68 | 350 | 7.8 | 13.9 | 0.00 | 0.00 | 0.00 | 78 | 1004.4 |
| 20260506002940 | 68 | 337 | 9.6 | 13.9 | 0.00 | 0.00 | 0.00 | 77 | 1004.2 |
| 20260506002441 | 69 | 343 | 11.3 | 14.8 | 0.00 | 0.00 | 0.00 | 77 | 1004.3 |
| 20260506001941 | 69 | 348 | 7.8 | 17.4 | 0.00 | 0.00 | 0.00 | 77 | 1004.0 |
| 20260506001441 | 69 | 351 | 11.3 | 17.4 | 0.00 | 0.00 | 0.00 | 76 | 1004.3 |
| 20260506000941 | 69 | 353 | 11.3 | 17.4 | 0.00 | 0.00 | 0.00 | 76 | 1004.2 |
| 20260506000440 | 70 | 343 | 11.3 | 17.4 | 0.00 | 0.00 | 0.00 | 76 | 1004.4 |
| 20260505235940 | 70 | 340 | 7.8 | 15.6 | 0.00 | 0.00 | 0.00 | 75 | 1004.2 |
| 20260505235441 | 70 | 348 | 8.7 | 15.6 | 0.00 | 0.00 | 0.00 | 75 | 1004.0 |
| 20260505234943 | 71 | 351 | 11.3 | 15.6 | 0.00 | 0.00 | 0.00 | 75 | 1004.1 |
| 20260505234441 | 71 | 349 | 9.6 | 15.6 | 0.00 | 0.00 | 0.00 | 75 | 1004.2 |
| 20260505233941 | 71 | 350 | 10.4 | 15.6 | 0.00 | 0.00 | 0.00 | 74 | 1004.1 |
| 20260505233441 | 72 | 348 | 9.6 | 15.6 | 0.00 | 0.00 | 0.00 | 75 | 1004.1 |
| 20260505232941 | 72 | 340 | 9.6 | 13.0 | 0.00 | 0.00 | 0.00 | 75 | 1003.9 |
| 20260505232441 | 73 | 353 | 8.7 | 14.8 | 0.00 | 0.00 | 0.00 | 73 | 1003.8 |
| 20260505231941 | 73 | 347 | 10.4 | 14.8 | 0.00 | 0.00 | 0.00 | 73 | 1003.4 |
| 20260505231441 | 73 | 348 | 8.7 | 14.8 | 0.00 | 0.00 | 0.00 | 72 | 1003.7 |
| 20260505230941 | 73 | 344 | 11.3 | 18.2 | 0.00 | 0.00 | 0.00 | 71 | 1003.9 |
| 20260505230441 | 74 | 334 | 11.3 | 18.2 | 0.00 | 0.00 | 0.00 | 71 | 1003.8 |
| 20260505225941 | 74 | 328 | 11.3 | 18.2 | 0.00 | 0.00 | 0.00 | 72 | 1003.9 |
| 20260505224441 | 77 | 332 | 9.6 | 13.9 | 0.00 | 0.00 | 0.00 | 69 | 1003.4 |
| 20260505223941 | 77 | 332 | 9.6 | 13.9 | 0.00 | 0.00 | 0.00 | 69 | 1003.3 |
| 20260505223441 | 77 | 340 | 8.7 | 13.0 | 0.00 | 0.00 | 0.00 | 69 | 1003.1 |
| 20260505221941 | 78 | 344 | 8.7 | 13.0 | 0.00 | 0.00 | 0.00 | 69 | 1002.8 |
| 20260505221441 | 78 | 331 | 7.8 | 15.6 | 0.00 | 0.00 | 0.00 | 69 | 1002.7 |
| 20260505220942 | 79 | 337 | 9.6 | 15.6 | 0.00 | 0.00 | 0.00 | 68 | 1002.6 |
| 20260505220442 | 80 | 350 | 12.2 | 15.6 | 0.00 | 0.00 | 0.00 | 66 | 1002.6 |
| 20260505215942 | 82 | 352 | 10.4 | 15.6 | 0.00 | 0.00 | 0.00 | 64 | 1002.4 |
| 20260505215442 | 83 | 337 | 9.6 | 12.2 | 0.00 | 0.00 | 0.00 | 60 | 1002.2 |
| 20260505214942 | 83 | 324 | 8.7 | 11.3 | 0.00 | 0.00 | 0.00 | 60 | 1002.3 |
| 20260505214441 | 82 | 323 | 7.8 | 12.2 | 0.00 | 0.00 | 0.00 | 61 | 1002.3 |
| 20260505213942 | 82 | 333 | 8.7 | 13.0 | 0.00 | 0.00 | 0.00 | 60 | 1002.4 |
| 20260505212941 | 84 | 324 | 7.0 | 14.8 | 0.00 | 0.00 | 0.00 | 56 | 1002.5 |
| 20260505212441 | 84 | 309 | 7.8 | 14.8 | 0.00 | 0.00 | 0.00 | 54 | 1002.4 |
| 20260505211942 | 84 | 308 | 8.7 | 14.8 | 0.00 | 0.00 | 0.00 | 53 | 1002.5 |
| 20260505210942 | 85 | 321 | 7.8 | 13.9 | 0.00 | 0.00 | 0.00 | 52 | 1002.5 |
| 20260505205942 | 84 | 298 | 10.4 | 13.0 | 0.00 | 0.00 | 0.00 | 49 | 1002.5 |
| 20260505205442 | 84 | 315 | 7.0 | 13.9 | 0.00 | 0.00 | 0.00 | 52 | 1002.6 |
| 20260505204942 | 84 | 320 | 10.4 | 13.9 | 0.00 | 0.00 | 0.00 | 50 | 1002.8 |
| 20260505204442 | 85 | 319 | 7.8 | 17.4 | 0.00 | 0.00 | 0.00 | 50 | 1002.7 |
| 20260505203942 | 86 | 301 | 8.7 | 17.4 | 0.00 | 0.00 | 0.00 | 52 | 1002.7 |
| 20260505203442 | 86 | 278 | 7.8 | 13.9 | 0.00 | 0.00 | 0.00 | 55 | 1002.6 |
| 20260505202942 | 87 | 262 | 7.8 | 13.9 | 0.00 | 0.00 | 0.00 | 56 | 1002.6 |
| 20260505202442 | 87 | 223 | 6.1 | 13.0 | 0.00 | 0.00 | 0.00 | 63 | 1002.5 |
| 20260505201942 | 87 | 228 | 6.1 | 13.9 | 0.00 | 0.00 | 0.00 | 64 | 1002.4 |
| 20260505201442 | 86 | 227 | 9.6 | 13.9 | 0.00 | 0.00 | 0.00 | 63 | 1002.7 |
| 20260505200942 | 86 | 216 | 7.8 | 13.9 | 0.00 | 0.00 | 0.00 | 64 | 1002.8 |
| 20260505200443 | 85 | 223 | 7.8 | 14.8 | 0.00 | 0.00 | 0.00 | 64 | 1002.8 |
| 20260505195942 | 85 | 235 | 8.7 | 14.8 | 0.00 | 0.00 | 0.00 | 63 | 1002.7 |
| 20260505195442 | 86 | 229 | 6.1 | 12.2 | 0.00 | 0.00 | 0.00 | 63 | 1002.7 |
| 20260505194942 | 86 | 228 | 7.0 | 11.3 | 0.00 | 0.00 | 0.00 | 63 | 1002.6 |
| 20260505193442 | 86 | 245 | 7.8 | 18.2 | 0.00 | 0.00 | 0.00 | 62 | 1002.8 |
| 20260505192442 | 86 | 217 | 10.4 | 18.2 | 0.00 | 0.00 | 0.00 | 63 | 1002.7 |
| 20260505191942 | 86 | 244 | 7.8 | 18.2 | 0.00 | 0.00 | 0.00 | 66 | 1002.6 |
| 20260505191442 | 85 | 219 | 7.8 | 14.8 | 0.00 | 0.00 | 0.00 | 65 | 1002.7 |
| 20260505190943 | 85 | 226 | 8.7 | 14.8 | 0.00 | 0.00 | 0.00 | 67 | 1002.7 |
| 20260505190443 | 85 | 213 | 6.1 | 13.0 | 0.00 | 0.00 | 0.00 | 66 | 1002.7 |
| 20260505185942 | 84 | 212 | 7.8 | 14.8 | 0.00 | 0.00 | 0.00 | 66 | 1002.7 |
| 20260505184943 | 84 | 217 | 6.1 | 17.4 | 0.00 | 0.00 | 0.00 | 66 | 1002.6 |
| 20260505182942 | 84 | 222 | 7.8 | 15.6 | 0.00 | 0.00 | 0.00 | 67 | 1002.8 |
| 20260505182443 | 83 | 218 | 7.8 | 14.8 | 0.00 | 0.00 | 0.00 | 67 | 1002.8 |
| 20260505180943 | 83 | 237 | 8.7 | 15.6 | 0.00 | 0.00 | 0.00 | 67 | 1002.7 |
| 20260505180443 | 83 | 218 | 7.8 | 15.6 | 0.00 | 0.00 | 0.00 | 68 | 1002.8 |
| 20260505175943 | 83 | 225 | 8.7 | 17.4 | 0.00 | 0.00 | 0.00 | 67 | 1002.9 |
| 20260505175443 | 83 | 219 | 8.7 | 17.4 | 0.00 | 0.00 | 0.00 | 68 | 1002.9 |
| 20260505174943 | 83 | 223 | 7.8 | 18.2 | 0.00 | 0.00 | 0.00 | 70 | 1002.8 |
| 20260505174443 | 82 | 222 | 12.2 | 19.1 | 0.00 | 0.00 | 0.00 | 69 | 1002.8 |
| 20260505173943 | 82 | 215 | 12.2 | 19.1 | 0.00 | 0.00 | 0.00 | 70 | 1002.8 |
| 20260505173444 | 81 | 217 | 12.2 | 19.1 | 0.00 | 0.00 | 0.00 | 72 | 1002.8 |
| 20260505172943 | 80 | 217 | 12.2 | 19.1 | 0.00 | 0.00 | 0.00 | 72 | 1002.8 |
| 20260505172443 | 80 | 220 | 11.3 | 19.1 | 0.00 | 0.00 | 0.00 | 73 | 1002.8 |
| 20260505171943 | 80 | 200 | 10.4 | 17.4 | 0.00 | 0.00 | 0.00 | 74 | 1002.7 |
| 20260505171443 | 80 | 216 | 8.7 | 17.4 | 0.00 | 0.00 | 0.00 | 75 | 1002.8 |